DELTA 1 DEB, 7023

Orbit data source: Space-Track

DELTA 1 DEB, 7023 is space debris in SSO originally from a launch on Tue, 06 Nov 1973 UTC launched from the Air Force Western Test Range (AFWTR). Debris objects in space refer to the collection of defunct objects orbiting the Earth. Examples of debris include non-operational satellites, rocket bodies, and fragments generated from explosions, collisions, or faulty payload assembly.

Loading next visibility...
Identifier
7023, 1973-086P
Orbit
SSO
Country
Flag of USUS
Related business
Manufacturer
Unknown
Mission
Spacecraft
Bus & Motor
Unknown
Mass
Unknown
Launch date (UTC)
1973-11-06 (52 years ago)
Launch vehicle
Unknown
Launch site
Air Force Western Test Range (AFWTR)
Object type
Payload
Rocket body
Debris
Shape & HBR
Unknown shape, 0.1 m
Radar Cross Section
Small (<0.1 m²)

Expand to show TLE details & history
Last TLE update: 7 hours ago

TLE from 7 hours ago
0 DELTA 1 DEB
1 07023U 73086P   25353.89673058 -.00000008  00000-0  29760-3 0  9996
2 07023 102.3236 322.7807 0029598 344.2002  75.8498 12.36345827350255
Epoch: 2025-12-19T21:31Z
TLE epoch observation values (Epoch: 2025-12-19T21:31:17.522Z)
Latitude
58.22661°
Longitude
-109.32186°
Altitude
1,526.081 km
Speed
7.111 km/s
True Right ascension
20h 08m 55s
True Declination
58° 05' 15"
Sunlit
Object was in daylight at epoch
Visualization orbit readout
Latitude
Unknown
Longitude
Unknown
Altitude
Unknown
Speed
Unknown
Apparent Right ascension
Unknown
Apparent Declination
Unknown
Sunlit
N/A
Visualization observer readout
Local Sidereal Time
03:39:19
Azimuth
Unknown
Elevation
Unknown
Doppler factor
Unknown
Orbital elements
Apogee altitude
1,543.107 km
Perigee altitude
1,496.355 km
Semi-major axis
7,897.868 km
Eccentricity
0.00296
Inclination
102.3236°
RAAN
322.7807°
Arg. of periapsis
344.2002°
True anomaly
76.17897°
Mean anomaly
75.8498°
Eccentric anomaly
76.01436°
Mean motion
3.09228 °/min
Orbital period
116.42 mins
BSTAR
0.0002976
Loading maneuver chart data...
Computing Atmospheric mass density...
Loading historical data...
Loading historical data...
Loading historical data...
Loading historical data...
Loading historical data...
Loading historical data...
Loading historical data...

Documentation

Showing up to 5 results
|